TimeCDT,TemperatureF,Dew PointF,Humidity,Sea Level PressureIn,VisibilityMPH,Wind Direction,Wind SpeedMPH,Gust SpeedMPH,PrecipitationIn,Events,Conditions,WindDirDegrees,DateUTC
12:56 AM,60.1,57.0,90,30.16,10.0,Calm,Calm,-,N/A,,Clear,0,2012-10-05 05:56:00
1:56 AM,60.1,55.9,86,30.15,10.0,Calm,Calm,-,N/A,,Clear,0,2012-10-05 06:56:00
2:56 AM,57.9,55.9,93,30.14,10.0,Calm,Calm,-,N/A,,Clear,0,2012-10-05 07:56:00
3:56 AM,59.0,55.9,90,30.14,10.0,NNW,4.6,-,N/A,,Clear,340,2012-10-05 08:56:00
4:56 AM,57.9,55.9,93,30.14,10.0,NNW,3.5,-,N/A,,Clear,340,2012-10-05 09:56:00
5:56 AM,57.9,55.0,90,30.15,10.0,North,4.6,-,N/A,,Clear,350,2012-10-05 10:56:00
6:56 AM,57.9,55.0,90,30.16,8.0,North,3.5,-,N/A,,Clear,350,2012-10-05 11:56:00
7:56 AM,64.0,59.0,84,30.16,10.0,Calm,Calm,-,N/A,,Clear,0,2012-10-05 12:56:00
8:56 AM,71.1,61.0,70,30.16,10.0,NE,3.5,-,N/A,,Clear,40,2012-10-05 13:56:00
9:56 AM,77.0,64.9,66,30.15,10.0,ENE,4.6,-,N/A,,Mostly Cloudy,70,2012-10-05 14:56:00
11:56 AM,82.0,63.0,52,30.12,10.0,East,8.1,-,N/A,,Scattered Clouds,100,2012-10-05 16:56:00
12:56 PM,84.0,62.1,47,30.10,10.0,NNE,3.5,-,N/A,,Mostly Cloudy,30,2012-10-05 17:56:00
1:56 PM,86.0,64.9,49,30.06,10.0,Calm,Calm,-,N/A,,Mostly Cloudy,0,2012-10-05 18:56:00
2:56 PM,84.9,63.0,48,30.03,10.0,Variable,4.6,-,N/A,,Scattered Clouds,0,2012-10-05 19:56:00
3:56 PM,84.9,64.0,49,30.01,10.0,NE,3.5,-,N/A,,Partly Cloudy,40,2012-10-05 20:56:00
4:56 PM,82.9,64.9,54,30.00,10.0,SSE,3.5,-,N/A,,Clear,160,2012-10-05 21:56:00
5:56 PM,81.0,66.0,60,30.00,10.0,Calm,Calm,-,N/A,,Clear,0,2012-10-05 22:56:00
6:56 PM,75.0,70.0,84,30.00,10.0,Calm,Calm,-,N/A,,Clear,0,2012-10-05 23:56:00
7:56 PM,72.0,68.0,87,30.01,10.0,Calm,Calm,-,N/A,,Clear,0,2012-10-06 00:56:00
8:56 PM,70.0,66.9,90,30.02,10.0,Calm,Calm,-,N/A,,Partly Cloudy,0,2012-10-06 01:56:00
9:56 PM,69.1,66.9,93,30.02,10.0,Calm,Calm,-,N/A,,Clear,0,2012-10-06 02:56:00
10:56 PM,68.0,64.9,90,30.04,10.0,Calm,Calm,-,N/A,,Mostly Cloudy,0,2012-10-06 03:56:00
11:56 PM,66.9,64.0,90,30.03,10.0,Calm,Calm,-,N/A,,Clear,0,2012-10-06 04:56:00